This demonstration page uses our WeatherBlox Daily Observations layout. Learn more.

40.92945, -100.16068

Hourly Observations for December 20, 2017

Temp ( °F °C ) Dew Point ( °F °C ) Humidity (%) Winds ( mph kmh ) Pressure ( in mb ) Visibility ( mi km ) Precip ( " mm )
12:15 am 00:15 Clear 20 -6.7 14 -10.1 77 77 Calm 30.21 1023 10 16.09344 0 0
12:35 am 00:35 Clear 21 -6.2 15 -9.5 78 78 Calm 30.21 1023 10 16.09344 0 0
12:55 am 00:55 Clear 22 -5.7 14 -10 72 72 Calm 30.21 1023 10 16.09344 0 0
1:15 am 01:15 Clear 21 -6 14 -10 74 74 SE 3 6 30.21 1023 10 16.09344 0 0
1:35 am 01:35 Clear 22 -5.8 14 -10.1 72 72 Calm 30.21 1023 10 16.09344 0 0
1:55 am 01:55 Clear 21 -6 14 -10 74 74 SSE 3 6 30.21 1023 10 16.09344 0 0
2:15 am 02:15 Clear 21 -6.1 14 -10.1 74 74 SE 3 6 30.21 1023 10 16.09344 0 0
2:35 am 02:35 Clear 22 -5.7 15 -9.5 75 75 SE 3 6 30.21 1023 10 16.09344 0 0
2:55 am 02:55 Clear 21 -6.3 14 -10.1 75 75 Calm 30.21 1023 10 16.09344 0 0
3:15 am 03:15 Clear 19 -7 14 -10.1 79 79 Calm 30.21 1023 10 16.09344 0 0
3:35 am 03:35 Clear 19 -7.3 13 -10.5 78 78 Calm 30.21 1023 10 16.09344 0 0
3:55 am 03:55 Clear 19 -7.5 13 -10.4 80 80 Calm 30.18 1022 10 16.09344 0 0
4:15 am 04:15 Clear 20 -6.9 14 -10.2 78 78 SSE 5 7 30.18 1022 10 16.09344 0 0
4:35 am 04:35 Clear 23 -5.2 14 -10.2 68 68 SE 5 7 30.18 1022 10 16.09344 0 0
4:55 am 04:55 Clear 23 -5 14 -9.8 69 69 SE 5 7 30.12 1020 10 16.09344 0 0
5:15 am 05:15 Clear 24 -4.3 15 -9.7 66 66 SE 6 9 30.12 1020 10 16.09344 0 0
5:35 am 05:35 Clear 24 -4.6 14 -9.9 67 67 SSE 7 11 30.12 1020 10 16.09344 0 0
5:55 am 05:55 Clear 23 -4.8 14 -9.9 68 68 SE 7 11 30.12 1020 10 16.09344 0 0
6:15 am 06:15 Clear 24 -4.7 15 -9.7 68 68 SE 7 11 30.12 1020 10 16.09344 0 0
6:35 am 06:35 Clear 24 -4.6 15 -9.7 68 68 SE 6 9 30.12 1020 10 16.09344 0 0
6:55 am 06:55 Clear 23 -4.8 15 -9.7 69 69 SE 7 11 30.12 1020 10 16.09344 0 0
7:15 am 07:15 Clear 24 -4.4 15 -9.4 68 68 SE 5 7 30.12 1020 10 16.09344 0 0
7:35 am 07:35 Clear 23 -5.1 15 -9.7 70 70 ESE 5 7 30.12 1020 10 16.09344 0 0
7:55 am 07:55 Clear 23 -5.1 15 -9.5 72 72 SSE 6 9 30.12 1020 10 16.09344 0 0
8:15 am 08:15 Sunny 22 -5.3 15 -9.3 74 74 SSE 7 11 30.12 1020 10 16.09344 0 0
8:35 am 08:35 Sunny 25 -4.1 16 -8.7 71 71 SSE 10 17 30.09 1019 10 16.09344 0 0
8:55 am 08:55 Sunny 26 -3.2 17 -8.2 69 69 SSE 13 20 30.09 1019 10 16.09344 0 0
9:15 am 09:15 Mostly Cloudy 29 -1.8 18 -7.6 65 65 S 10 17 30.06 1018 10 16.09344 0 0
9:35 am 09:35 Cloudy 30 -1 19 -7.3 63 63 SSE 14 22 30.06 1018 10 16.09344 0 0
9:55 am 09:55 Cloudy 31 -0.5 21 -5.9 67 67 S 15 24 30.06 1018 10 16.09344 0 0
10:15 am 10:15 Cloudy 32 0 23 -5.1 69 69 S 14 22 30.06 1018 10 16.09344 0 0
10:35 am 10:35 Cloudy 32 0 25 -3.9 75 75 S 15 24 30.06 1018 10 16.09344 0 0
10:55 am 10:55 Cloudy 33 0.8 27 -2.8 77 77 S 16 26 30 1016 10 16.09344 0 0
11:15 am 11:15 Mostly Cloudy 34 1.3 29 -1.9 79 79 S 20 31 29.97 1015 10 16.09344 0 0
11:35 am 11:35 Partly Cloudy 36 2.1 29 -1.7 76 76 S 16 26 29.97 1015 10 16.09344 0 0
11:55 am 11:55 Sunny 37 2.9 29 -1.5 73 73 S 14 22 29.94 1014 10 16.09344 0 0
12:15 pm 12:15 Sunny 39 4 30 -1.1 70 70 S 14 22 29.91 1013 10 16.09344 0 0
12:35 pm 12:35 Sunny 40 4.4 29 -1.8 64 64 S 14 22 29.88 1012 10 16.09344 0 0
12:55 pm 12:55 Sunny 41 4.8 29 -1.8 63 63 S 17 28 29.83 1010 10 16.09344 0 0
1:15 pm 13:15 Sunny 43 6 30 -1.2 60 60 S 15 24 29.83 1010 10 16.09344 0 0
1:35 pm 13:35 Sunny 45 7.1 32 0 61 61 S 14 22 29.8 1009 10 16.09344 0 0
1:55 pm 13:55 Sunny 45 7.2 32 0.1 61 61 S 17 28 29.8 1009 10 16.09344 0 0
2:15 pm 14:15 Sunny 47 8.2 32 0.1 57 57 S 13 20 29.77 1008 10 16.09344 0 0
2:35 pm 14:35 Sunny 47 8.6 32 0 55 55 S 17 28 29.77 1008 10 16.09344 0 0
2:55 pm 14:55 Sunny 47 8.4 32 0 56 56 S 16 26 29.74 1007 10 16.09344 0 0
3:15 pm 15:15 Sunny 47 8.4 32 0 56 56 S 16 26 29.74 1007 10 16.09344 0 0
3:35 pm 15:35 Sunny 47 8.2 32 0 57 57 S 15 24 29.74 1007 10 16.09344 0 0
3:55 pm 15:55 Sunny 47 8.1 32 0 57 57 S 13 20 29.74 1007 10 16.09344 0 0
4:15 pm 16:15 Sunny 47 8.3 32 0.1 57 57 S 16 26 29.74 1007 10 16.09344 0 0
4:35 pm 16:35 Sunny 46 7.6 32 0 59 59 S 15 24 29.74 1007 10 16.09344 0 0
4:55 pm 16:55 Sunny 44 6.5 32 0 64 64 SSE 14 22 29.74 1007 10 16.09344 0 0
5:15 pm 17:15 Clear 42 5.6 31 -0.3 66 66 SSE 9 15 29.77 1008 10 16.09344 0 0
5:35 pm 17:35 Clear 40 4.4 31 -0.8 69 69 SSE 9 15 29.77 1008 10 16.09344 0 0
5:55 pm 17:55 Clear 38 3.6 30 -1 72 72 SSE 8 13 29.8 1009 10 16.09344 0 0
6:15 pm 18:15 Clear 39 3.8 31 -0.5 74 74 SE 8 13 29.8 1009 10 16.09344 0 0
6:35 pm 18:35 Clear 39 3.7 32 -0.2 76 76 SE 7 11 29.8 1009 10 16.09344 0 0
6:55 pm 18:55 Clear 36 2.3 30 -1.1 78 78 SSE 7 11 29.8 1009 7 11.265408 0 0
7:15 pm 19:15 Clear 37 2.5 31 -0.5 81 81 SE 8 13 29.77 1008 7 11.265408 0 0
7:35 pm 19:35 Clear 36 2.1 31 -0.6 83 83 SE 8 13 29.77 1008 7 11.265408 0 0
7:55 pm 19:55 Clear 34 0.9 30 -1.3 85 85 SE 8 13 29.77 1008 7 11.265408 0 0
8:15 pm 20:15 Clear 35 1.7 31 -0.7 84 84 SE 8 13 29.77 1008 7 11.265408 0 0
8:35 pm 20:35 Clear 35 1.6 31 -0.7 85 85 SSE 8 13 29.77 1008 7 11.265408 0 0
8:55 pm 20:55 Clear 35 1.6 31 -0.5 86 86 SE 3 6 29.77 1008 7 11.265408 0 0
9:15 pm 21:15 Clear 36 2 32 -0.1 86 86 SSE 7 11 29.77 1008 7 11.265408 0 0
9:35 pm 21:35 Clear 37 2.6 33 0.3 85 85 SSE 9 15 29.77 1008 7 11.265408 0 0
9:55 pm 21:55 Clear 38 3.5 35 1.5 87 87 SSE 10 17 29.77 1008 7 11.265408 0 0
10:15 pm 22:15 Clear with Mist and Fog 39 4.1 36 2.2 88 88 SSE 9 15 29.74 1007 5 8.04672 0 0
10:35 pm 22:35 Mostly Cloudy with Mist and Fog 39 3.9 36 2.2 89 89 SSE 5 7 29.74 1007 4 6.437376 0 0
10:55 pm 22:55 Cloudy with Mist and Fog 39 4.1 37 2.7 91 91 SSE 5 7 29.74 1007 4 6.437376 0 0
11:15 pm 23:15 Cloudy with Mist and Fog 40 4.6 38 3.2 91 91 S 7 11 29.74 1007 4 6.437376 0 0
11:35 pm 23:35 Cloudy with Mist and Fog 41 5.2 39 3.9 91 91 SSE 9 15 29.74 1007 4 6.437376 0 0
11:55 pm 23:55 Cloudy with Mist and Fog 41 5 39 3.9 93 93 S 14 22 29.74 1007 1.25 2.01168 0 0

Powered by AerisWeather